[[{"header":{"parameterUnit":"m.s-1","parameterCategory":1,"la1":30.2991,"la2":30.254,"lo1":-89.0895,"lo2":-89.0444,"dy":0.0017,"dx":0.0017,"nx":28,"ny":28,"refTime":"2023-09-09T03:00:00:Z","depth":0,"parameterNumber":2,"parameterNumberName":"U-component_of_WINDS"},"data":[0,0,0,0,0,0,0,0,0,0,0,0,0,0,0,0,0,0,0,0,0,0,0,0,0,0,0,0,0,0,0,0,0,0,0,0,0,0,0,0,0,0,0,0,0,0,0,0,0,0,0,0,0,0,0,0,0,0,0.0905,0.0906,0,0.0988,0.0989,0.099,0.1014,0.1013,0.1013,0.1012,0.1103,0.1106,0.1109,0,0,0,0,0,0,0,0,0,0,0,0,0,0.0773,0.0776,0.0905,0.0906,0.0907,0.0988,0.0989,0.099,0.1014,0.1013,0.1013,0.1012,0.1103,0.1106,0.1109,0,0,0,0,0,0,0,0,0,0,0,0,0,0.0841,0.0776,0.0905,0.0929,0.0931,0.0987,0.0989,0.099,0.1014,0.1013,0.1012,0.1012,0.1101,0.1106,0.111,0.115,0,0,0.1123,0.1125,0,0,0,0,0,0,0,0,0.0837,0.0846,0.0924,0.0927,0.093,0.099,0.0976,0.1044,0.1014,0.0983,0.1012,0.1011,0.1067,0.1074,0.1091,0.1155,0.1158,0.1123,0.1126,0.1128,0.1129,0,0,0,0,0,0,0,0.0832,0.0842,0.0938,0.0925,0.0929,0.0937,0.0946,0.0989,0.1028,0.0985,0.0987,0.0996,0.1068,0.1087,0.1093,0.116,0.1123,0.1127,0.113,0.1131,0.1261,0.1262,0,0,0,0,0,0,0.0823,0.0838,0.0935,0.094,0.0881,0.094,0.095,0.0971,0.1027,0.1035,0.0997,0.0997,0.108,0.1088,0.1097,0.1147,0.1128,0.1132,0.1134,0.126,0.1261,0.1262,0,0,0,0,0,0,0.082,0.0831,0.0932,0.089,0.0903,0.0943,0.0967,0.0973,0.0992,0.1036,0.1044,0.1008,0.108,0.1091,0.1136,0.1151,0.1134,0.1138,0.1259,0.126,0.1261,0.1249,0,0,0,0,0,0,0.0816,0.083,0.0844,0.089,0.0905,0.0968,0.0968,0.0975,0.0998,0.1,0.1049,0.1056,0.108,0.113,0.114,0.1156,0.1141,0.1258,0.1259,0.1261,0.1248,0.1249,0.1251,0,0,0,0,0,0.0811,0.0839,0.0845,0.0857,0.0924,0.0969,0.0978,0.1003,0.0999,0.1015,0.1043,0.1055,0.1147,0.1134,0.1147,0.1164,0.1257,0.1259,0.1261,0.1247,0.1249,0.125,0,0,0,0,0,0,0.0796,0.0845,0.0853,0.0896,0.0928,0.0973,0.0993,0.1004,0.104,0.104,0.1071,0.1082,0.1125,0.1149,0.1134,0.1206,0.1203,0.1207,0.1188,0.119,0.1191,0.1185,0.1145,0,0,0,0,0,0.0798,0.0828,0.0871,0.0905,0.092,0.0954,0.0975,0.0991,0.1026,0.1041,0.1072,0.1108,0.1145,0.1169,0.1206,0.1252,0.1263,0.127,0.1271,0.1272,0.1275,0.1301,0.1305,0.1268,0.1268,0.1268,0,0,0.0802,0.0832,0.085,0.0902,0.0929,0.0962,0.0965,0.1,0.1025,0.1047,0.1091,0.1115,0.1158,0.1203,0.1225,0.1225,0.1288,0.1274,0.1275,0.1278,0.1304,0.1307,0.131,0.127,0.1269,0.1269,0,0,0.0825,0.0851,0.0882,0.0908,0.0948,0.097,0.0977,0.1021,0.1037,0.1082,0.1098,0.113,0.1193,0.1222,0.1245,0.1279,0.1291,0.1291,0.1297,0.1322,0.1325,0.1328,0.134,0.1344,0.1294,0.1294,0.1294,0,0.0825,0.0873,0.0897,0.093,0.0953,0.0972,0.1004,0.1029,0.108,0.1096,0.1094,0.1173,0.1203,0.1256,0.1264,0.1282,0.1292,0.1285,0.1322,0.1325,0.1328,0.134,0.1344,0.1294,0.1294,0.1294,0.1294,0,0.0872,0.0905,0.0925,0.0971,0.0996,0.1029,0.1059,0.1082,0.1096,0.1119,0.1164,0.12,0.1244,0.1258,0.1273,0.1313,0.1311,0.1316,0.1313,0.1331,0.1342,0.1347,0.1293,0.1293,0.1293,0.1294,0,0,0.0888,0.0945,0.0953,0.0973,0.1018,0.1045,0.108,0.112,0.1139,0.1174,0.1204,0.1257,0.126,0.1287,0.1305,0.1327,0.1351,0.1329,0.133,0.1331,0.1397,0.1393,0.1398,0.1359,0.136,0.1361,0.1393,0,0.0917,0.0976,0.0998,0.1047,0.1078,0.1097,0.1126,0.1158,0.118,0.1212,0.1238,0.1274,0.1276,0.1292,0.1315,0.1343,0.1365,0.1341,0.1388,0.139,0.1376,0.1404,0.14,0.1429,0.1398,0.1399,0.1399,0,0.0958,0.099,0.1042,0.1082,0.1096,0.1122,0.1161,0.119,0.1227,0.1242,0.1271,0.1288,0.1326,0.132,0.1374,0.1357,0.1378,0.1395,0.1397,0.1402,0.1395,0.1409,0.1439,0.1443,0.1407,0.1406,0.1406,0,0.0965,0.1021,0.1059,0.1076,0.1125,0.1143,0.1164,0.12,0.1223,0.1258,0.1273,0.1313,0.1335,0.1366,0.1394,0.1387,0.1444,0.1442,0.1458,0.1458,0.147,0.1468,0.1502,0.1483,0.1483,0.1483,0.1483,0,0.0994,0.1025,0.1062,0.1085,0.1121,0.1147,0.1182,0.1205,0.1236,0.1266,0.1285,0.1312,0.1347,0.138,0.1402,0.1443,0.1453,0.1467,0.1472,0.1465,0.1463,0.1478,0.1477,0.1484,0.1484,0.1484,0.1484,0,0.1007,0.1033,0.1076,0.1117,0.1128,0.1153,0.1189,0.1213,0.1236,0.1273,0.1283,0.132,0.1359,0.1389,0.1441,0.1456,0.1499,0.1505,0.1485,0.1488,0.1503,0.1501,0.1548,0.1555,0.1532,0.1532,0.1532,0,0.1024,0.1048,0.1091,0.1111,0.1131,0.1164,0.1186,0.1213,0.1237,0.128,0.1299,0.1339,0.1372,0.1434,0.1467,0.1506,0.1514,0.1527,0.152,0.1511,0.1513,0.1511,0.1514,0.1528,0.1528,0.1528,0.1528,0,0.1051,0.1063,0.1094,0.1129,0.1155,0.1185,0.1216,0.1232,0.1265,0.129,0.1329,0.1354,0.1406,0.1445,0.1488,0.1512,0.1526,0.153,0.1536,0.1529,0.1516,0.1522,0.1487,0.1529,0.1529,0.1529,0.1529,0.1529,0.1066,0.1088,0.1122,0.1156,0.1181,0.1209,0.1233,0.1258,0.129,0.1332,0.1347,0.1387,0.1424,0.1482,0.1507,0.154,0.154,0.1549,0.1551,0.1553,0.1552,0.151,0.1548,0.1548,0.1548,0.1548,0.1548,0,0.1094,0.1116,0.1147,0.1188,0.1215,0.1223,0.1258,0.128,0.1314,0.1346,0.1378,0.1423,0.1461,0.1496,0.1536,0.1556,0.1563,0.1566,0.1564,0.157,0.1549,0.1539,0.1559,0.1559,0.1559,0.1559,0.1559,0.1559,0.1112,0.1148,0.1164,0.1214,0.1236,0.1274,0.1293,0.1319,0.1344,0.1392,0.1423,0.1445,0.1479,0.1521,0.1557,0.1567,0.1581,0.1581,0.1593,0.1573,0.1571,0.157,0.1561,0.1584,0.1584,0.161,0.1611,0.1611]},{"header":{"parameterUnit":"m.s-1","parameterCategory":1,"la1":30.2991,"la2":30.254,"lo1":-89.0895,"lo2":-89.0444,"dy":0.0017,"dx":0.0017,"nx":28,"ny":28,"refTime":"2023-09-09T03:00:00:Z","depth":0,"parameterNumber":3,"parameterNumberName":"V-component_of_WINDS"},"data":[0,0,0,0,0,0,0,0,0,0,0,0,0,0,0,0,0,0,0,0,0,0,0,0,0,0,0,0,0,0,0,0,0,0,0,0,0,0,0,0,0,0,0,0,0,0,0,0,0,0,0,0,0,0,0,0,0,0,1.8606,1.8606,0,1.8607,1.8608,1.8608,1.8576,1.8576,1.8575,1.8574,1.8572,1.8573,1.8573,0,0,0,0,0,0,0,0,0,0,0,0,0,1.8568,1.8569,1.8606,1.8606,1.8606,1.8607,1.8608,1.8608,1.8577,1.8576,1.8575,1.8574,1.8572,1.8572,1.8573,0,0,0,0,0,0,0,0,0,0,0,0,0,1.8578,1.8569,1.8606,1.859,1.8589,1.8607,1.8608,1.8608,1.8577,1.8576,1.8574,1.8573,1.8571,1.8572,1.8573,1.8605,0,0,1.8577,1.8577,0,0,0,0,0,0,0,0,1.8578,1.858,1.8593,1.8592,1.859,1.8591,1.8593,1.8607,1.8577,1.8581,1.8574,1.8572,1.8579,1.8579,1.8582,1.8605,1.8605,1.8577,1.8578,1.8578,1.8578,0,0,0,0,0,0,0,1.8577,1.858,1.8606,1.8593,1.8591,1.8581,1.8581,1.8596,1.8587,1.8581,1.8579,1.8579,1.8578,1.8581,1.8582,1.8605,1.8577,1.8578,1.8578,1.8579,1.8648,1.8649,0,0,0,0,0,0,1.8579,1.8579,1.8606,1.8606,1.8581,1.8583,1.8583,1.8592,1.8587,1.8585,1.8581,1.8578,1.858,1.8581,1.8582,1.8614,1.8578,1.8579,1.858,1.8646,1.8648,1.8649,0,0,0,0,0,0,1.8579,1.8582,1.8606,1.8592,1.8594,1.8585,1.8595,1.8592,1.8596,1.8587,1.8584,1.8586,1.8579,1.858,1.8598,1.8614,1.8579,1.858,1.8645,1.8647,1.8648,1.8683,0,0,0,0,0,0,1.8578,1.8582,1.8596,1.8593,1.8595,1.8625,1.8596,1.8593,1.8598,1.8595,1.8591,1.8589,1.8578,1.8597,1.86,1.8615,1.8581,1.8643,1.8646,1.8648,1.868,1.8686,1.869,0,0,0,0,0,1.8577,1.8606,1.8597,1.86,1.8613,1.8626,1.8627,1.8615,1.86,1.8612,1.8605,1.8589,1.8612,1.8599,1.8602,1.8618,1.8642,1.8645,1.8648,1.8678,1.8685,1.869,0,0,0,0,0,0,1.8611,1.8605,1.8595,1.8625,1.8626,1.8621,1.8637,1.8623,1.8628,1.8625,1.8608,1.8607,1.8627,1.8625,1.861,1.8645,1.8624,1.8627,1.8646,1.8652,1.8657,1.8657,1.8582,0,0,0,0,0,1.8622,1.8636,1.8629,1.8656,1.8657,1.8647,1.8652,1.8642,1.8642,1.8642,1.8637,1.8637,1.8643,1.8648,1.8654,1.868,1.8676,1.8692,1.8697,1.8701,1.8703,1.8712,1.8717,1.8658,1.8658,1.8658,0,0,1.8645,1.8644,1.8653,1.8662,1.8662,1.8673,1.8647,1.8662,1.8668,1.8644,1.866,1.8656,1.8654,1.8675,1.8684,1.8673,1.8719,1.8704,1.8707,1.8707,1.8715,1.8721,1.8726,1.866,1.8659,1.8659,0,0,1.8692,1.8695,1.8714,1.8714,1.8714,1.8706,1.8711,1.8707,1.8703,1.872,1.87,1.8707,1.872,1.8718,1.8719,1.876,1.8744,1.8762,1.8787,1.8796,1.8801,1.8805,1.8816,1.8821,1.8765,1.8765,1.8765,0,1.8721,1.8739,1.8726,1.874,1.8743,1.8722,1.8739,1.8739,1.8741,1.8742,1.873,1.8743,1.874,1.8758,1.8768,1.877,1.8772,1.8762,1.8802,1.8805,1.8809,1.8819,1.8824,1.8767,1.8767,1.8767,1.8766,0,1.8771,1.8783,1.8799,1.8801,1.8805,1.8822,1.8808,1.8814,1.8803,1.8795,1.8809,1.8805,1.8807,1.8811,1.8801,1.8826,1.8819,1.8805,1.8783,1.8817,1.8826,1.883,1.877,1.8769,1.8769,1.8768,0,0,1.8841,1.8833,1.8839,1.8837,1.8834,1.8842,1.8855,1.8858,1.8861,1.8862,1.887,1.888,1.8865,1.8865,1.8854,1.8862,1.889,1.8846,1.8846,1.8852,1.8913,1.8922,1.8927,1.888,1.8881,1.8882,1.8912,0,1.8884,1.8907,1.8894,1.8919,1.8927,1.8905,1.8916,1.8913,1.8906,1.891,1.8901,1.8906,1.8889,1.8888,1.8895,1.8886,1.8902,1.8883,1.8884,1.8885,1.8884,1.8933,1.8943,1.8973,1.8916,1.8917,1.8917,0,1.8938,1.894,1.8964,1.8955,1.8958,1.8969,1.8967,1.8973,1.8968,1.8961,1.896,1.8946,1.8954,1.8934,1.8944,1.8931,1.8931,1.8926,1.8926,1.8924,1.8902,1.8929,1.8982,1.8986,1.8923,1.8923,1.8923,0,1.8981,1.8991,1.9005,1.9005,1.8996,1.9003,1.8999,1.8993,1.8994,1.8992,1.8992,1.8992,1.8991,1.899,1.8974,1.8961,1.8984,1.8963,1.8976,1.8976,1.8981,1.898,1.9032,1.8985,1.8985,1.8984,1.8984,0,1.9029,1.9044,1.9024,1.9033,1.9048,1.9032,1.9046,1.904,1.9034,1.9038,1.902,1.9024,1.9004,1.9006,1.8994,1.9001,1.9002,1.8994,1.899,1.8995,1.8995,1.8993,1.899,1.8986,1.8985,1.8985,1.8985,0,1.908,1.9068,1.9082,1.9071,1.9069,1.908,1.9069,1.9075,1.9066,1.9072,1.9072,1.9056,1.9057,1.9041,1.9039,1.903,1.9042,1.9036,1.9044,1.9041,1.9053,1.9051,1.9103,1.9108,1.906,1.9061,1.9061,0,1.911,1.9121,1.911,1.9112,1.9109,1.9114,1.9114,1.9097,1.9098,1.9091,1.9097,1.9096,1.9094,1.9095,1.9082,1.9079,1.9071,1.9089,1.907,1.9073,1.9067,1.9066,1.9065,1.9093,1.9093,1.9094,1.9094,0,1.9163,1.9155,1.9158,1.9157,1.9158,1.9156,1.9153,1.9155,1.9136,1.9138,1.9138,1.9137,1.9133,1.9131,1.9125,1.9118,1.9102,1.91,1.9102,1.9106,1.9109,1.9104,1.9052,1.9099,1.9098,1.9098,1.9098,1.9098,1.9202,1.9209,1.9202,1.9203,1.9199,1.9196,1.92,1.919,1.919,1.9187,1.9176,1.9177,1.9168,1.9158,1.9152,1.9151,1.9142,1.9146,1.9146,1.9147,1.9148,1.9111,1.915,1.915,1.915,1.915,1.915,0,1.9251,1.9244,1.9246,1.9242,1.9242,1.9228,1.9223,1.9223,1.9225,1.9218,1.9216,1.9215,1.9212,1.9198,1.9192,1.9194,1.9186,1.9193,1.9191,1.9189,1.9159,1.9156,1.9199,1.9199,1.9199,1.9199,1.9199,1.9199,1.9276,1.9286,1.9277,1.9283,1.9276,1.9278,1.9275,1.9271,1.9265,1.9264,1.9262,1.9253,1.9242,1.9235,1.923,1.9226,1.9224,1.9233,1.9225,1.9197,1.9192,1.9187,1.9184,1.9233,1.9233,1.9256,1.9256,1.9256]}]]